Regional Weather Roundup
Issued by NWS Boston, MA

Home | Current Version | Previous Version | Text Only | Print | Product List | Glossary On
Versions: 1 2 3 4 5 6 7 8 9 10 11 12 13 14 15 16 17 18 19 20 21 22 23 24 25 26 27
000
ASUS41 KBOX 300210
RWRBOX

REGIONAL WEATHER ROUNDUP
NATIONAL WEATHER SERVICE TAUNTON MA
1000 PM EDT SAT APR 29 2017

NOTE:  "FAIR" INDICATES FEW OR NO CLOUDS BELOW 12,000 FEET WITH NO
SIGNIFICANT WEATHER AND/OR OBSTRUCTIONS TO VISIBILITY.

MAZALL-300300-
EASTERN MASSACHUSETTS

CITY           SKY/WX    TMP DP  RH WIND       PRES   REMARKS
BOSTON         MOCLDY    70  46  42 W14       29.98R
BEVERLY        CLEAR     68  47  46 W7G18     29.96R
LAWRENCE       CLEAR     68  47  46 W10       29.98R
BEDFORD        MOCLDY    68  41  37 W10G21    29.97R
BLUE HILL        N/A     67  44  43 W21G30    29.98R
NORWOOD        CLOUDY    70  47  43 W14G20    29.99R
MARSHFIELD     PTCLDY    72  48  43 W12G25    29.97R
PLYMOUTH       MOCLDY    70  48  45 W14       29.99R
TAUNTON        CLOUDY    71  49  45 W10G20    30.00R
NEW BEDFORD    PTCLDY    70  51  51 W17       30.00R
$$

MAZALL-300300-
CAPE COD AND THE ISLANDS

CITY           SKY/WX    TMP DP  RH WIND       PRES   REMARKS
FALMOUTH       MOCLDY    70  54  56 MISG      30.00R
HYANNIS        CLOUDY    72  54  53 W9G17     29.97R
CHATHAM        MOCLDY    71  53  52 VRB6      29.97R
PROVINCETOWN   PTCLDY    60  49  66 W15       29.97R
NANTUCKET      CLEAR     56  52  86 W8        30.00R
MARTHAS VNYRD  CLEAR     66  52  60 N10       30.01R
$$

MAZALL-300300-
CENTRAL AND WESTERN MASSACHUSETTS

CITY           SKY/WX    TMP DP  RH WIND       PRES   REMARKS
WORCESTER      PTCLDY    63  39  41 W14       30.02S
FITCHBURG      PTCLDY    66  40  38 NW5G16    30.01R
ORANGE         CLEAR     62  40  44 W7        30.03R
SPRINGFIELD    PTCLDY    65  38  37 W8        30.05R
WESTFIELD      CLOUDY    63  42  46 W6        30.06R
NORTH ADAMS    MOCLDY    57  37  47 SW5       30.10R
PITTSFIELD     PTCLDY    56  40  55 NW15G26   30.09R
$$

RIZALL-300300-
RHODE ISLAND

CITY           SKY/WX    TMP DP  RH WIND       PRES   REMARKS
PROVIDENCE     CLOUDY    71  50  47 W18G29    30.04R
NEWPORT        PTCLDY    68  52  56 NW15G23   30.03R
BLOCK ISLAND   CLEAR     66  54  65 NW13      30.05R
SMITHFIELD     CLOUDY    66  48  52 W9G21     30.04R
WESTERLY       PTCLDY    71  54  54 NW7       30.06R
$$

CTZALL-300300-
CONNECTICUT

CITY           SKY/WX    TMP DP  RH WIND       PRES   REMARKS
BRADLEY INTL   CLOUDY    65  46  50 W13       30.07R
HARTFORD       CLOUDY    68  49  50 NW7       30.08R
BRIDGEPORT     PTCLDY    72  54  53 N14       30.07R
DANBURY        CLEAR     66  54  65 NW6       30.11R
GROTON         CLEAR     70  53  54 NW9G22    30.04R
NEW HAVEN      PTCLDY    70  53  54 NW10G18   30.08R
CHESTER        FAIR      68  52  56 NW12G18   30.08R
MERIDEN        PTCLDY    70  52  52 NW9       30.07R
WILLIMANTIC    MOCLDY    69  48  47 NW18G26   30.07R
OXFORD         CLEAR     64  48  55 NW6       30.10R
$$

MEZ002-015-021-024-NHZ003-005-008-011-012-014-VTZ005-008-300300-
NORTHERN NEW ENGLAND

CITY           SKY/WX    TMP DP  RH WIND       PRES   REMARKS
PORTLAND ME    CLOUDY    64  41  42 N5        29.93R
BANGOR ME      PTCLDY    58  34  40 N21G32    29.93R
CONCORD NH     CLEAR     66  41  40 W14G22    29.97R
MANCHESTER NH  PTCLDY    66  43  43 W6        29.96R
NASHUA NH      CLEAR     66  45  46 W7          N/A
PORTSMOUTH NH  MOCLDY    66  49  53 W10       29.94R
JAFFREY NH     CLEAR     61  44  53 W6        30.02R
KEENE NH       CLEAR     62  42  47 SW6       30.03R
BURLINGTON VT  PTCLDY    52  29  41 N22G32    30.16R
MT. WASHINGTON MOCLDY    30  27  86 NW79G87     N/A  WCI   8
$$

NYZ052-076-300300-
EASTERN NEW YORK

CITY           SKY/WX    TMP DP  RH WIND       PRES   REMARKS
ALBANY         PTCLDY    56  35  45 W16G25    30.14R
NEW YORK CITY  MOCLDY    76  56  49 NW14G23   30.07R
$$

ANZALL-300300-
MARINE OBSERVATIONS

STATION/POSITION TIME  TEMP    WIND        PRES    VSBY  WAVE
                       AIR SEA DIR/SP/G                  HT/PER
                 (UTC) (F)     (DEG/KT/KT) (MB)    (MI)  (FT/S)
BOSTON BUOY      0050   60 49  260/ 14/ 16 1012.8          3/ 4
BUZZARDS BAY     0100   59     260/ 13/ 13 1015.6R
NANTUCKET SOUND  0050      48              1014.2          2/ 3
MASS BAY-STELLWA 0104   57 48  270/ 10/ 12 1013.0R         3/ 8
ISLE OF SHOALS   0100   69     260/ 18/ 18 1012.4R
S OF BLOCK IS    0155      49                N/A           5/ 6
$$

......................KEY.........................
  SKY/WX - SKY CONDITION/PRESENT WEATHER
  TMP    - TEMPERATURE IN FAHRENHEIT
  DWPT   - DEWPOINT IN FAHRENHEIT
  RH     - RELATIVE HUMIDITY IN PERCENT
  WIND   - DIRECTION AND SPEED IN MPH
  PRES   - MEAN SEA LEVEL PRESSURE IN INCHES OF HG
  WCI    - WIND CHILL INDEX
  VSB    - VISIBILITY IN MILES
  HX     - HEAT INDEX
  TC     - TEMPERATURE IN CELSIUS
  VRB    - VARIABLE WIND DIRECTION
  N/A    - NOT AVAILABLE




USA.gov is the U.S. government's official web portal to all federal, state and local government web resources and services.